User: anonymous   Login
Location: Voyageurs National Park
(48.5020°N, 92.9292°W)
Time: 01:12:48
(UTC-06:00)
Language:

Terra - Orbit

View from above orbital plane
View from above orbital plane
View from above satellite
View from above satellite

Ground track
Ground track

The orbit data is extracted from the following two-line orbital elements,

1 25994U 99068A   16036.76306762  .00000149  00000-0  43103-4 0  9993
2 25994  98.2015 112.9323 0001296 107.0584 253.0762 14.57118622858238
Epoch (UTC): 05 February 2016 18:18:49
Eccentricity: 0.0001296
inclination: 98.2015°
perigee height: 701 km
apogee height: 703 km
right ascension of ascending node: 112.9323°
argument of perigee: 107.0584°
revolutions per day: 14.57118622
mean anomaly at epoch: 253.0762°
orbit number at epoch: 85823

The dashed part of the orbit path shows where the satellite is in the earth's shadow,  

DLR